Regional Weather Roundup
Issued by NWS Sioux Falls, SD

Home | Current Version | Previous Version | Graphics & Text | Print | Product List | Glossary On
Versions: 1 2 3 4 5 6 7 8 9 10 11 12 13 14 15 16 17 18 19 20 21 22 23 24 25 26 27 28 29 30 31 32 33 34 35 36 37 38 39 40 41 42 43 44 45 46 47 48 49 50
000
ASUS43 KFSD 240202
RWRFSD

WEATHER ROUNDUP FOR SE SOUTH DAKOTA/SW MINNESOTA/NW IOWA
NATIONAL WEATHER SERVICE SIOUX FALLS SD
900 PM CDT THU MAR 23 2017

NOTE: "FAIR" INDICATES FEW OR NO CLOUDS BELOW 12,000 FEET WITH NO
SIGNIFICANT WEATHER AND OR OBSTRUCTIONS TO VISIBILITY.


SDZ038>040-050-052>070-240300-
SOUTHEAST SOUTH DAKOTA

CITY           SKY/WX    TMP DP  RH WIND       PRES   REMARKS
BROOKINGS      LGT RAIN  41  40  96 E6        29.73R FOG
CHAMBERLAIN    CLOUDY    47  47 100 NE6       29.73R FOG
HURON          CLOUDY    42  42 100 NE7       29.74R
MADISON        LGT RAIN  39  39 100 E6        29.72R
MITCHELL       CLOUDY    47  46  97 N10       29.72R FOG
SIOUX FALLS    CLOUDY    46  41  82 NE8       29.71R
WINNER         FAIR      48  45  89 NE9       29.68R
YANKTON        CLOUDY    54  45  71 NE8       29.66R
$$

MNZ071-072-080-081-089-090-097-098-240300-
SOUTHWEST MINNESOTA

CITY           SKY/WX    TMP DP  RH WIND       PRES   REMARKS
FAIRMONT       CLOUDY    40  35  83 SE14      29.77R
JACKSON        CLOUDY    39  34  81 SE12      29.75R
LUVERNE        CLOUDY    43  36  75 E8        29.71S
MARSHALL       LGT RAIN  38  36  92 E6        29.77R
MONTEVIDEO     DRIZZLE   36  36 100 SE8       29.79S
PIPESTONE      DRIZZLE   39  36  87 E5        29.72R
REDWOOD FALLS  LGT RAIN  39  34  82 E6        29.78R
TRACY          CLOUDY    39  37  91 E3        29.76R
WINDOM         MOCLDY    41  36  81 SE12      29.74R
WORTHINGTON    CLOUDY    40  36  86 SE14      29.71S
$$

IAZ001>003-012>014-020>022-031-032-NEZ013-014-SDZ071-240300-
NORTHWEST IOWA

CITY           SKY/WX    TMP DP  RH WIND       PRES   REMARKS
CHEROKEE       CLOUDY    49  39  67 SE8       29.71R
ESTHERVILLE    CLOUDY    39  37  92 E12       29.74R
LE MARS        CLOUDY    55  43  62 SE8       29.67F
ORANGE CITY    CLOUDY    50  45  81 SE7       29.68F
SHELDON        CLOUDY    48  48 100 SE12      29.67F
SIOUX CITY     CLOUDY    55  45  68 SE6       29.65S
SPENCER        CLOUDY    47  38  71 SE13      29.73R
STORM LAKE     MOCLDY    46  37  71 E14G23    29.71R
$$

ABBREVIATIONS USED IN REMARKS
   TC - TEMPERATURE IN CELSIUS
  WCI - WIND CHILL INDEX
   HX - HEAT INDEX
  VSB - VISIBILITY




USA.gov is the U.S. government's official web portal to all federal, state and local government web resources and services.